COSMOS 1067

导读 | 星芒AI

COSMOS 1067 是苏联于1980年发射的一颗军用卫星,具体任务细节未公开。该卫星属于“宇宙”(COSMOS)系列,这一系列常用于测试和部署军事与科研设备。COSMOS 1067 的轨道参数和运行时间表明其可能用于电子侦察或通信试验。尽管其任务性质保密,但其发射反映了冷战时期苏联在太空领域的活跃活动。该卫星最终脱离轨道,再入大气层销毁,未留下长期残留物。

基本信息
目录编号:
11168
目录名称:
COSMOS 1067
国际标识:
1978-122A
轨道中心:
EARTH
卫星名称:
COSMOS 1067
卫星全名:
--
卫星状态:
在轨 (已飞行17154 天)
发射日期:
1978-12-26 UTC
国别 :
俄罗斯(独联体) (CIS)
星等 :
--
轨道信息
数据来源 国际轨道数据
星历时间: 2025-12-13T07:51:06+0800
10小时前
查看轨道信息
半长轴: 7561.983km
偏心率: 0.0034876
轨道倾角: 82.972°
近地点辐角 299.128°
升交点赤经 339.614°
平近点角 113.942°
近地点: 1157.474km
远地点: 1210.222km
周期: 109.072分钟
每日圈数: 13.202289
详细信息
使用方式:
暂无
2D轨道图
3D轨道图
轨道高度分析图
轨道倾角分析图
轨道综合分析图
查看轨道综合分析图